| time (UTC) | temp C | wind direction | speed KPH | gust KPH | rain 1hr cm | rain 24hr cm | rain mn cm | humidity % | barometer mb |
| 20260507165917 | 16 | 359 | 1.6 | 4.8 | 0.00 | 0.81 | 0.74 | 43 | 1005.8 |
| 20260507164955 | 16 | 10 | 3.2 | 8.0 | 0.00 | 0.81 | 0.74 | 47 | 1005.8 |
| 20260507163920 | 16 | 305 | 4.8 | 8.0 | 0.00 | 0.81 | 0.74 | 50 | 1005.9 |
| 20260507162937 | 16 | 293 | 3.2 | 9.7 | 0.00 | 0.81 | 0.74 | 51 | 1006.1 |
| 20260507161942 | 15 | 299 | 4.8 | 4.8 | 0.00 | 0.81 | 0.74 | 54 | 1006.2 |
| 20260507160959 | 15 | 305 | 3.2 | 9.7 | 0.00 | 0.81 | 0.74 | 54 | 1006.3 |
| 20260507155925 | 15 | 315 | 1.6 | 8.0 | 0.00 | 0.81 | 0.74 | 56 | 1006.2 |
| 20260507154943 | 15 | 271 | 4.8 | 8.0 | 0.00 | 0.81 | 0.74 | 60 | 1006.5 |
| 20260507153929 | 14 | 308 | 4.8 | 8.0 | 0.00 | 0.81 | 0.74 | 61 | 1006.6 |
| 20260507152913 | 14 | 235 | 1.6 | 8.0 | 0.00 | 0.81 | 0.74 | 62 | 1006.8 |
| 20260507151952 | 14 | 350 | 1.6 | 3.2 | 0.00 | 0.81 | 0.74 | 64 | 1006.8 |
| 20260507150918 | 14 | 319 | 1.6 | 4.8 | 0.00 | 0.81 | 0.74 | 63 | 1006.7 |
| 20260507145936 | 14 | 303 | 1.6 | 3.2 | 0.00 | 0.81 | 0.74 | 62 | 1006.9 |
| 20260507144920 | 13 | 350 | 1.6 | 1.6 | 0.00 | 0.81 | 0.74 | 67 | 1007.0 |
| 20260507143958 | 13 | 319 | 1.6 | 3.2 | 0.00 | 0.81 | 0.74 | 66 | 1006.8 |
| 20260507142924 | 13 | 45 | 1.6 | 4.8 | 0.00 | 0.81 | 0.74 | 71 | 1007.2 |
| 20260507141939 | 12 | 322 | 1.6 | 3.2 | 0.00 | 0.81 | 0.74 | 68 | 1007.2 |
| 20260507140924 | 12 | 319 | 1.6 | 3.2 | 0.03 | 0.81 | 0.74 | 78 | 1007.2 |
| 20260507135942 | 11 | 348 | 1.6 | 3.2 | 0.03 | 0.81 | 0.74 | 76 | 1007.4 |
| 20260507134928 | 11 | 234 | 0.0 | 1.6 | 0.03 | 0.81 | 0.74 | 80 | 1007.1 |
| 20260507133946 | 11 | 304 | 3.2 | 3.2 | 0.03 | 0.81 | 0.74 | 84 | 1007.4 |
| 20260507132930 | 10 | 330 | 0.0 | 3.2 | 0.05 | 0.81 | 0.74 | 90 | 1007.3 |
| 20260507132008 | 10 | 329 | 3.2 | 4.8 | 0.05 | 0.81 | 0.74 | 94 | 1007.2 |
| 20260507130931 | 10 | 301 | 1.6 | 3.2 | 0.05 | 0.79 | 0.71 | 96 | 1007.4 |
| 20260507130009 | 9 | 15 | 0.0 | 1.6 | 0.05 | 0.79 | 0.71 | 97 | 1007.2 |
| 20260507125014 | 10 | 276 | 1.6 | 4.8 | 0.08 | 0.79 | 0.71 | 97 | 1007.2 |
| 20260507124031 | 9 | 0.0 | 0.0 | 0.08 | 0.79 | 0.71 | 97 | 1007.4 | |
| 20260507122936 | 9 | 336 | 0.0 | 1.6 | 0.08 | 0.76 | 0.69 | 97 | 1007.7 |
| 20260507121922 | 9 | 0.0 | 0.0 | 0.10 | 0.76 | 0.69 | 97 | 1007.8 | |
| 20260507120941 | 9 | 0.0 | 0.0 | 0.08 | 0.74 | 0.66 | 97 | 1007.3 | |
| 20260507115926 | 8 | 0.0 | 0.0 | 0.10 | 0.74 | 0.66 | 97 | 1007.3 | |
| 20260507114945 | 8 | 0.0 | 0.0 | 0.10 | 0.71 | 0.64 | 97 | 1007.3 | |
| 20260507113931 | 8 | 0.0 | 0.0 | 0.10 | 0.71 | 0.64 | 97 | 1007.3 | |
| 20260507113010 | 8 | 0.0 | 0.0 | 0.10 | 0.69 | 0.61 | 97 | 1007.5 | |
| 20260507111935 | 8 | 0.0 | 0.0 | 0.10 | 0.66 | 0.58 | 97 | 1007.0 | |
| 20260507110953 | 8 | 0.0 | 0.0 | 0.10 | 0.66 | 0.58 | 96 | 1007.1 | |
| 20260507105939 | 8 | 0.0 | 0.0 | 0.10 | 0.64 | 0.56 | 96 | 1006.9 | |
| 20260507104956 | 8 | 0.0 | 0.0 | 0.08 | 0.61 | 0.53 | 96 | 1007.0 | |
| 20260507104002 | 8 | 0.0 | 0.0 | 0.10 | 0.61 | 0.53 | 96 | 1006.9 | |
| 20260507102927 | 8 | 0.0 | 0.0 | 0.08 | 0.58 | 0.51 | 96 | 1007.3 | |
| 20260507101946 | 8 | 0.0 | 0.0 | 0.08 | 0.56 | 0.48 | 96 | 1007.4 | |
| 20260507100952 | 8 | 0.0 | 0.0 | 0.08 | 0.56 | 0.48 | 96 | 1007.2 | |
| 20260507095951 | 8 | 0.0 | 0.0 | 0.08 | 0.53 | 0.46 | 96 | 1007.0 | |
| 20260507094937 | 8 | 0.0 | 0.0 | 0.10 | 0.53 | 0.46 | 95 | 1006.8 | |
| 20260507093955 | 8 | 0.0 | 0.0 | 0.10 | 0.51 | 0.43 | 95 | 1006.8 | |
| 20260507092942 | 8 | 0.0 | 0.0 | 0.15 | 0.51 | 0.43 | 95 | 1006.8 | |
| 20260507092020 | 8 | 0.0 | 1.6 | 0.15 | 0.48 | 0.41 | 95 | 1006.6 | |
| 20260507090946 | 8 | 317 | 0.0 | 1.6 | 0.20 | 0.48 | 0.41 | 95 | 1006.3 |
| 20260507085931 | 9 | 314 | 1.6 | 4.8 | 0.20 | 0.46 | 0.38 | 95 | 1006.4 |
| 20260507084949 | 9 | 333 | 0.0 | 1.6 | 0.23 | 0.43 | 0.36 | 94 | 1006.6 |
| 20260507083935 | 9 | 338 | 0.0 | 4.8 | 0.25 | 0.41 | 0.33 | 94 | 1006.5 |
| 20260507082953 | 10 | 0.0 | 3.2 | 0.25 | 0.36 | 0.28 | 94 | 1006.4 | |
| 20260507081939 | 10 | 319 | 1.6 | 3.2 | 0.23 | 0.33 | 0.25 | 93 | 1006.3 |
| 20260507080957 | 10 | 0.0 | 1.6 | 0.18 | 0.28 | 0.20 | 92 | 1006.6 | |
| 20260507075943 | 11 | 331 | 0.0 | 1.6 | 0.15 | 0.25 | 0.18 | 91 | 1006.4 |
| 20260507075002 | 11 | 0.0 | 1.6 | 0.10 | 0.20 | 0.13 | 88 | 1006.5 | |
| 20260507073946 | 12 | 321 | 1.6 | 3.2 | 0.05 | 0.15 | 0.08 | 83 | 1006.5 |
| 20260507073005 | 12 | 343 | 1.6 | 3.2 | 0.00 | 0.10 | 0.03 | 83 | 1005.6 |
| 20260507071951 | 12 | 329 | 0.0 | 3.2 | 0.00 | 0.10 | 0.03 | 82 | 1005.4 |
| 20260507070937 | 12 | 320 | 1.6 | 3.2 | 0.00 | 0.10 | 0.03 | 83 | 1005.4 |
| 20260507065956 | 12 | 347 | 1.6 | 3.2 | 0.00 | 0.10 | 0.03 | 82 | 1005.2 |
| 20260507064940 | 12 | 330 | 1.6 | 3.2 | 0.00 | 0.10 | 0.03 | 83 | 1005.6 |
| 20260507063959 | 13 | 333 | 1.6 | 3.2 | 0.00 | 0.10 | 0.03 | 85 | 1005.6 |
| 20260507062943 | 13 | 320 | 1.6 | 1.6 | 0.00 | 0.10 | 0.03 | 86 | 1005.7 |
| 20260507062002 | 13 | 326 | 0.0 | 1.6 | 0.00 | 0.10 | 0.03 | 85 | 1005.3 |
| 20260507060947 | 13 | 346 | 1.6 | 3.2 | 0.00 | 0.10 | 0.03 | 86 | 1005.5 |
| 20260507060007 | 13 | 43 | 1.6 | 3.2 | 0.00 | 0.10 | 0.03 | 92 | 1005.8 |
| 20260507054951 | 13 | 303 | 1.6 | 3.2 | 0.00 | 0.10 | 0.03 | 93 | 1005.8 |
| 20260507053937 | 13 | 0.0 | 0.0 | 0.00 | 0.10 | 0.03 | 93 | 1005.9 | |
| 20260507052955 | 14 | 329 | 0.0 | 1.6 | 0.00 | 0.10 | 0.03 | 93 | 1005.9 |
| 20260507051940 | 14 | 322 | 1.6 | 1.6 | 0.00 | 0.10 | 0.03 | 94 | 1005.8 |
| 20260507050957 | 14 | 0.0 | 0.0 | 0.00 | 0.10 | 0.03 | 94 | 1005.8 | |
| 20260507045942 | 14 | 321 | 1.6 | 1.6 | 0.03 | 0.10 | 0.03 | 95 | 1005.9 |
| 20260507045041 | 15 | 312 | 1.6 | 3.2 | 0.03 | 0.10 | 0.03 | 95 | 1005.8 |
| 20260507043946 | 15 | 317 | 1.6 | 3.2 | 0.03 | 0.10 | 0.03 | 95 | 1005.8 |
| 20260507043005 | 15 | 327 | 0.0 | 1.6 | 0.03 | 0.10 | 0.03 | 95 | 1005.7 |
| 20260507041950 | 15 | 310 | 0.0 | 1.6 | 0.03 | 0.10 | 0.03 | 95 | 1005.7 |
| 20260507041027 | 15 | 314 | 0.0 | 1.6 | 0.03 | 0.10 | 0.03 | 94 | 1005.8 |
| 20260507035952 | 15 | 0.0 | 3.2 | 0.00 | 0.08 | 0.08 | 94 | 1005.9 | |
| 20260507035031 | 14 | 262 | 4.8 | 8.0 | 0.00 | 0.08 | 0.08 | 93 | 1006.0 |
| 20260507033957 | 14 | 293 | 3.2 | 4.8 | 0.00 | 0.08 | 0.08 | 94 | 1006.0 |
| 20260507033035 | 14 | 301 | 1.6 | 3.2 | 0.00 | 0.08 | 0.08 | 94 | 1005.9 |
| 20260507032020 | 14 | 317 | 1.6 | 3.2 | 0.00 | 0.08 | 0.08 | 94 | 1005.8 |
| 20260507030946 | 14 | 305 | 3.2 | 9.7 | 0.00 | 0.08 | 0.08 | 94 | 1005.6 |
| 20260507030005 | 13 | 288 | 1.6 | 3.2 | 0.00 | 0.08 | 0.08 | 94 | 1005.6 |
| 20260507024950 | 13 | 282 | 1.6 | 4.8 | 0.00 | 0.08 | 0.08 | 94 | 1005.4 |
| 20260507024028 | 13 | 302 | 1.6 | 4.8 | 0.00 | 0.08 | 0.08 | 94 | 1005.6 |
| 20260507022953 | 13 | 304 | 3.2 | 4.8 | 0.00 | 0.08 | 0.08 | 94 | 1005.6 |
| 20260507022011 | 13 | 234 | 1.6 | 4.8 | 0.00 | 0.08 | 0.08 | 95 | 1005.7 |
| 20260507021016 | 13 | 168 | 3.2 | 8.0 | 0.00 | 0.08 | 0.08 | 95 | 1005.8 |
| 20260507020035 | 13 | 307 | 1.6 | 4.8 | 0.00 | 0.08 | 0.08 | 95 | 1005.6 |
| 20260507015000 | 13 | 308 | 1.6 | 3.2 | 0.00 | 0.08 | 0.08 | 95 | 1005.8 |
| 20260507014019 | 13 | 281 | 3.2 | 4.8 | 0.00 | 0.08 | 0.08 | 95 | 1005.9 |
| 20260507013005 | 13 | 309 | 1.6 | 4.8 | 0.00 | 0.08 | 0.08 | 95 | 1006.2 |
| 20260507011949 | 13 | 288 | 1.6 | 3.2 | 0.00 | 0.08 | 0.08 | 95 | 1006.2 |
| 20260507011007 | 13 | 296 | 3.2 | 8.0 | 0.00 | 0.08 | 0.08 | 95 | 1006.2 |
| 20260507005952 | 13 | 296 | 1.6 | 4.8 | 0.00 | 0.08 | 0.08 | 95 | 1006.2 |
| 20260507005010 | 13 | 283 | 1.6 | 8.0 | 0.00 | 0.08 | 0.08 | 94 | 1006.3 |
| 20260507003956 | 13 | 311 | 1.6 | 3.2 | 0.00 | 0.08 | 0.08 | 94 | 1006.2 |
| 20260507003014 | 13 | 295 | 1.6 | 4.8 | 0.00 | 0.08 | 0.08 | 94 | 1006.0 |
| 20260507002020 | 13 | 285 | 4.8 | 9.7 | 0.00 | 0.08 | 0.08 | 94 | 1005.9 |
| 20260507001020 | 13 | 324 | 0.0 | 3.2 | 0.00 | 0.08 | 0.08 | 94 | 1006.1 |
| 20260507000005 | 13 | 274 | 4.8 | 4.8 | 0.00 | 0.08 | 0.08 | 94 | 1005.9 |
| 20260506235023 | 13 | 271 | 3.2 | 11.3 | 0.00 | 0.08 | 0.08 | 94 | 1006.0 |
| 20260506234009 | 13 | 265 | 4.8 | 8.0 | 0.00 | 0.08 | 0.08 | 94 | 1005.7 |
| 20260506232955 | 13 | 259 | 3.2 | 11.3 | 0.00 | 0.08 | 0.08 | 94 | 1005.7 |
| 20260506232013 | 13 | 322 | 1.6 | 4.8 | 0.00 | 0.08 | 0.08 | 94 | 1005.9 |
| 20260506230958 | 13 | 275 | 1.6 | 8.0 | 0.00 | 0.08 | 0.08 | 94 | 1006.1 |
| 20260506230015 | 13 | 307 | 3.2 | 4.8 | 0.00 | 0.08 | 0.08 | 94 | 1005.9 |
| 20260506225000 | 13 | 295 | 3.2 | 4.8 | 0.03 | 0.08 | 0.08 | 94 | 1005.9 |
| 20260506224019 | 13 | 275 | 3.2 | 11.3 | 0.03 | 0.08 | 0.08 | 95 | 1005.9 |
| 20260506223005 | 13 | 307 | 4.8 | 9.7 | 0.03 | 0.08 | 0.08 | 94 | 1006.0 |
| 20260506222024 | 13 | 307 | 4.8 | 4.8 | 0.03 | 0.08 | 0.08 | 94 | 1006.2 |
| 20260506221010 | 14 | 310 | 1.6 | 4.8 | 0.03 | 0.08 | 0.08 | 93 | 1006.1 |
| 20260506220028 | 14 | 283 | 3.2 | 11.3 | 0.05 | 0.08 | 0.08 | 93 | 1006.3 |
| 20260506215014 | 15 | 287 | 3.2 | 8.0 | 0.05 | 0.05 | 0.05 | 92 | 1006.4 |
| 20260506214019 | 15 | 282 | 3.2 | 9.7 | 0.05 | 0.05 | 0.05 | 92 | 1006.5 |
| 20260506213018 | 15 | 295 | 3.2 | 8.0 | 0.05 | 0.05 | 0.05 | 92 | 1006.5 |
| 20260506212024 | 15 | 305 | 4.8 | 11.3 | 0.05 | 0.05 | 0.05 | 92 | 1006.7 |
| 20260506211042 | 15 | 302 | 1.6 | 8.0 | 0.05 | 0.05 | 0.05 | 92 | 1006.6 |
| 20260506210007 | 15 | 305 | 1.6 | 3.2 | 0.03 | 0.03 | 0.03 | 91 | 1006.6 |
| 20260506205026 | 15 | 294 | 3.2 | 8.0 | 0.00 | 0.00 | 0.00 | 89 | 1006.6 |
| 20260506204012 | 15 | 283 | 4.8 | 9.7 | 0.00 | 0.00 | 0.00 | 89 | 1006.9 |
| 20260506202923 | 16 | 291 | 3.2 | 11.3 | 0.00 | 0.00 | 0.00 | 88 | 1006.7 |
| 20260506201929 | 16 | 270 | 1.6 | 12.9 | 0.00 | 0.00 | 0.00 | 87 | 1006.7 |
| 20260506200927 | 16 | 300 | 3.2 | 8.0 | 0.00 | 0.00 | 0.00 | 86 | 1006.8 |
| 20260506195933 | 16 | 271 | 4.8 | 4.8 | 0.00 | 0.00 | 0.00 | 85 | 1007.0 |
| 20260506194932 | 17 | 275 | 6.4 | 14.5 | 0.00 | 0.00 | 0.00 | 82 | 1006.9 |
| 20260506193936 | 17 | 288 | 3.2 | 9.7 | 0.00 | 0.00 | 0.00 | 80 | 1007.1 |
| 20260506192934 | 17 | 303 | 3.2 | 4.8 | 0.00 | 0.00 | 0.00 | 79 | 1007.0 |
| 20260506191917 | 18 | 247 | 3.2 | 11.3 | 0.00 | 0.00 | 0.00 | 76 | 1007.0 |
| 20260506190936 | 18 | 288 | 6.4 | 9.7 | 0.00 | 0.00 | 0.00 | 73 | 1007.2 |
| 20260506185922 | 18 | 282 | 4.8 | 16.1 | 0.00 | 0.00 | 0.00 | 72 | 1007.1 |
| 20260506184927 | 18 | 277 | 4.8 | 12.9 | 0.00 | 0.00 | 0.00 | 72 | 1007.2 |
| 20260506183926 | 18 | 283 | 3.2 | 11.3 | 0.00 | 0.00 | 0.00 | 71 | 1007.1 |
| 20260506182932 | 19 | 274 | 6.4 | 12.9 | 0.00 | 0.00 | 0.00 | 71 | 1007.2 |
| 20260506181950 | 19 | 282 | 6.4 | 9.7 | 0.00 | 0.00 | 0.00 | 70 | 1007.2 |
| 20260506180934 | 19 | 275 | 8.0 | 12.9 | 0.00 | 0.00 | 0.00 | 71 | 1007.3 |
| 20260506175932 | 20 | 283 | 1.6 | 9.7 | 0.00 | 0.00 | 0.00 | 70 | 1007.6 |
| 20260506174937 | 20 | 278 | 6.4 | 12.9 | 0.00 | 0.00 | 0.00 | 68 | 1007.6 |
| 20260506173956 | 20 | 274 | 4.8 | 17.7 | 0.00 | 0.00 | 0.00 | 66 | 1007.9 |
| 20260506172921 | 20 | 274 | 8.0 | 16.1 | 0.00 | 0.00 | 0.00 | 67 | 1008.0 |
| 20260506171940 | 20 | 293 | 4.8 | 9.7 | 0.00 | 0.00 | 0.00 | 69 | 1007.7 |
| 20260506170925 | 20 | 279 | 4.8 | 11.3 | 0.00 | 0.00 | 0.00 | 69 | 1007.6 |